Regional Weather Roundup
Issued by NWS

Home | Current Version | Previous Version | Graphics & Text | Print | Product List | Glossary On
Versions: 1 2 3 4 5 6 7 8 9 10 11 12 13 14 15 16 17 18 19 20 21 22 23 24 25 26 27 28 29 30 31 32 33 34 35 36 37 38 39 40 41 42 43 44 45 46 47 48 49 50
794
ASUS43 KLSX 230507
RWRMO
STLRWRMO ALL

WEATHER SUMMARY FOR MISSOURI
NATIONAL WEATHER SERVICE SPRINGFIELD MO
1200 AM CDT FRI JUN 23 2017

NOTE: "FAIR" INDICATES FEW OR NO CLOUDS BELOW 12,000 FEET WITH NO
       SIGNIFICANT WEATHER AND/OR OBSTRUCTIONS TO VISIBILITY.
       CURRENT SKY AND/OR WEATHER CONDITIONS ARE NOT AVAILABLE FOR
       CHILLICOTHE AND FARMINGTON.

MOZ001>031-035>038-043-044-053-054-230600-
...NORTHERN AND WESTERN MISSOURI...

CITY           SKY/WX    TMP DP  RH WIND       PRES   REMARKS
KANSAS CTY INT CLEAR     78  73  84 S7        29.70S
KANSAS C DTWN  CLEAR     82  74  76 S8        29.69R
LEE`S SUMMIT   PTCLDY    78  74  87 SE7       29.72S
ST JOSEPH      PTCLDY    76  73  91 CALM      29.70R
CHILLICOTHE      N/A     77  73  87 S5        29.70F
KIRKSVILLE     MOCLDY    75  72  90 S5        29.72S

$$
MOZ066>068-077>081-088>096-101>105-230600-
...SOUTHWEST MISSOURI...

CITY           SKY/WX    TMP DP  RH WIND       PRES   REMARKS
SPRINGFIELD    CLOUDY    75  71  87 S7        29.74R
JOPLIN         CLEAR     76  73  91 CALM      29.72S
BRANSON        PTCLDY    72  72 100 SE5       29.74F

$$
MOZ032>034-039>042-045>050-055>058-069>072-230600-
...CENTRAL MISSOURI...

CITY           SKY/WX    TMP DP  RH WIND       PRES   REMARKS
COLUMBIA       CLEAR     76  73  91 SE6       29.72F
JEFFERSON CITY CLOUDY    78  72  81 E3        29.71S
ROLLA          CLOUDY    75  72  90 S13       29.74S
SEDALIA        CLEAR     76  75  97 CALM      29.73S
WHITEMAN AFB   MOCLDY    76  75  99 S3        29.71S
WARRENSBURG    PTCLDY    73  72  94 CALM      29.72R
OSAGE BEACH    CLOUDY    76  73  91 S5        29.73S

$$
MOZ051-052-059>065-230600-
...EAST CENTRAL MISSOURI...

CITY           SKY/WX    TMP DP  RH WIND       PRES   REMARKS
ST LOUIS INTL  MOCLDY    80  74  81 SE8       29.74F
SPIRIT OF STL  PTCLDY    77  75  93 SE5       29.72F
ST CHARLES     PTCLDY    77  75  93 MISG      29.72F

$$
MOZ072>076-082>087-097>100-106>115-230600-
...SOUTH CENTRAL AND SOUTHEAST MISSOURI...

CITY           SKY/WX    TMP DP  RH WIND       PRES   REMARKS
CAPE GIRARDEAU MOCLDY    78  73  84 S8        29.75F
FARMINGTON     CLOUDY    75  73  93 S9        29.77F
POPLAR BLUFF   LGT RAIN  76  75  97 S10       29.75F
WEST PLAINS    CLOUDY    74  72  93 E6        29.76F

$$




USA.gov is the U.S. government's official web portal to all federal, state and local government web resources and services.